GW1675 Weather Reports


time (UTC)temp
F
wind
direction
speed
knots
gust
knots
rain 1hr
in
rain 24hr
in
rain mn
in
humidity
%
barometer
mb
20260507194548 63 198 3.5 7.8 0.00 0.00 0.00 63 1012.5
20260507193049 63 198 4.3 7.8 0.00 0.00 0.00 63 1012.3
20260507191546 63 198 5.2 10.4 0.00 0.00 0.00 63 1012.1
20260507190044 64 198 5.2 11.3 0.00 0.00 0.00 62 1012.0
20260507184549 64 199 3.5 8.7 0.00 0.00 0.00 62 1011.7
20260507183055 65 199 4.3 10.4 0.00 0.00 0.00 62 1011.5
20260507181546 66 200 3.5 7.8 0.00 0.00 0.00 62 1011.2
20260507180055 67 200 3.5 7.8 0.00 0.00 0.00 62 1011.3
20260507174546 68 200 4.3 8.7 0.00 0.00 0.00 63 1011.2
20260507173056 68 200 3.5 7.8 0.00 0.00 0.00 63 1011.3
20260507171552 68 200 5.2 13.0 0.00 0.00 0.00 63 1011.4
20260507170055 68 200 7.0 11.3 0.00 0.00 0.00 63 1011.4
20260507164544 68 200 8.7 13.9 0.00 0.00 0.00 63 1011.5
20260507163048 67 195 8.7 13.0 0.00 0.00 0.00 63 1011.5
20260507161551 68 181 7.0 14.8 0.00 0.00 0.00 63 1011.5
20260507160053 68 177 8.7 16.5 0.00 0.00 0.00 63 1011.4
20260507154548 68 182 7.8 17.4 0.00 0.00 0.00 63 1011.4
20260507153102 68 167 7.0 13.0 0.00 0.00 0.00 63 1011.4
20260507151542 68 159 6.1 12.2 0.00 0.00 0.00 63 1011.6
20260507150053 68 151 7.8 13.0 0.00 0.00 0.00 63 1011.7
20260507144545 69 153 7.0 11.3 0.00 0.00 0.00 63 1011.9
20260507143057 69 153 5.2 10.4 0.00 0.00 0.00 63 1011.9
20260507141548 69 153 7.0 9.6 0.00 0.00 0.00 63 1012.1
20260507140046 68 151 4.3 11.3 0.00 0.00 0.00 63 1012.0
20260507134541 69 150 7.0 11.3 0.00 0.00 0.00 63 1012.3
20260507133049 69 150 7.0 12.2 0.00 0.00 0.00 64 1012.3
20260507131549 69 148 6.1 10.4 0.00 0.00 0.00 64 1012.4
20260507130100 69 147 5.2 11.3 0.00 0.00 0.00 64 1012.6
20260507124552 68 146 6.1 12.2 0.00 0.00 0.00 64 1012.5
20260507123049 68 145 4.3 12.2 0.00 0.00 0.00 65 1012.9
20260507121554 68 140 5.2 12.2 0.00 0.00 0.00 65 1013.2
20260507120047 67 131 5.2 13.0 0.00 0.00 0.00 65 1013.3
20260507114545 67 146 6.1 12.2 0.00 0.00 0.00 65 1013.4
20260507113052 67 152 4.3 11.3 0.00 0.00 0.00 66 1013.4
20260507111544 66 143 8.7 13.9 0.00 0.00 0.00 66 1013.2
20260507110056 67 103 7.8 13.0 0.00 0.00 0.00 66 1013.2
20260507104555 66 101 7.0 12.2 0.00 0.00 0.00 66 1013.1
20260507103112 65 98 6.1 10.4 0.00 0.00 0.00 67 1013.1
20260507101545 65 98 6.1 11.3 0.00 0.00 0.00 67 1013.3
20260507094553 64 98 4.3 9.6 0.00 0.00 0.00 67 1013.2
20260507093045 64 98 6.1 10.4 0.00 0.00 0.00 67 1013.3
20260507091544 63 98 5.2 10.4 0.00 0.00 0.00 67 1013.2
20260507090038 63 98 4.3 7.8 0.00 0.00 0.00 67 1013.3
20260507084548 63 98 2.6 5.2 0.00 0.00 0.00 67 1013.1
20260507083045 63 98 1.7 4.3 0.00 0.00 0.00 67 1012.9
20260507081544 64 98 1.7 3.5 0.00 0.00 0.00 68 1012.8
20260507080046 63 98 0.9 3.5 0.00 0.00 0.00 68 1012.7
20260507074540 63 98 1.7 2.6 0.00 0.00 0.00 68 1012.6
20260507073049 61 98 0.0 2.6 0.00 0.00 0.00 68 1012.5
20260507071549 60 98 0.9 2.6 0.00 0.00 0.00 68 1012.3
20260507064552 58 98 1.7 3.5 0.00 0.00 0.00 68 1012.1
20260507063044 57 98 0.0 0.9 0.00 0.00 0.00 67 1011.9
20260507061552 55 98 0.9 2.6 0.00 0.00 0.00 67 1012.0
20260507060044 57 98 1.7 2.6 0.00 0.00 0.00 67 1012.0
20260507054559 57 0 0.0 0.0 0.00 0.00 0.00 67 1011.6
20260507053059 57 98 0.9 1.7 0.00 0.00 0.00 67 1011.5
20260507051551 57 98 0.9 3.5 0.00 0.00 0.00 67 1011.4
20260507050050 58 98 0.9 2.6 0.00 0.00 0.00 67 1011.4
20260507044552 58 98 2.6 6.1 0.00 0.00 0.00 67 1011.2
20260507043039 58 98 2.6 5.2 0.00 0.00 0.00 67 1011.3
20260507041558 58 98 1.7 3.5 0.00 0.00 0.00 67 1011.4
20260507040045 58 98 0.9 3.5 0.00 0.00 0.00 67 1011.3
20260507034544 58 98 1.7 4.3 0.00 0.00 0.00 67 1011.3
20260507033053 58 98 2.6 7.0 0.00 0.00 0.00 67 1011.3
20260507031548 59 98 3.5 11.3 0.00 0.00 0.00 67 1011.1
20260507030052 59 98 3.5 9.6 0.00 0.00 0.00 67 1011.0
20260507024549 59 98 5.2 9.6 0.00 0.00 0.00 67 1011.0
20260507023051 59 98 3.5 7.8 0.00 0.00 0.00 67 1011.2
20260507021550 59 98 4.3 8.7 0.00 0.00 0.00 67 1011.1
20260507020106 59 98 3.5 11.3 0.00 0.00 0.00 67 1011.1
20260507014606 60 98 5.2 13.0 0.00 0.00 0.00 67 1011.1
20260507013056 60 96 7.0 13.9 0.00 0.00 0.00 67 1011.1
20260507011555 60 99 7.0 15.6 0.00 0.00 0.00 67 1011.2
20260507010046 60 98 6.1 14.8 0.00 0.00 0.00 67 1011.3
20260507004549 61 96 7.0 16.5 0.00 0.00 0.00 67 1011.4
20260507003038 61 94 7.0 14.8 0.00 0.00 0.00 67 1011.6
20260507001558 61 89 7.0 13.0 0.00 0.00 0.00 67 1011.6
20260507000057 61 87 7.8 15.6 0.00 0.00 0.00 67 1011.6
20260506234604 61 86 5.2 11.3 0.00 0.00 0.00 67 1011.7
20260506233049 61 86 7.0 16.5 0.00 0.00 0.00 67 1011.7
20260506231543 62 87 9.6 19.1 0.00 0.00 0.00 67 1011.9
20260506230100 62 75 7.8 16.5 0.00 0.00 0.00 66 1011.9
20260506224550 62 68 9.6 19.1 0.00 0.00 0.00 66 1012.0
20260506223044 62 94 7.8 14.8 0.00 0.00 0.00 66 1011.9
20260506221601 63 93 8.7 14.8 0.00 0.00 0.00 66 1011.9
20260506220047 63 91 7.8 13.9 0.00 0.00 0.00 66 1011.8
20260506214543 63 92 7.8 13.0 0.00 0.00 0.00 66 1012.0
20260506213054 63 92 7.8 14.8 0.00 0.00 0.00 66 1011.8
20260506211553 64 92 7.0 13.0 0.00 0.00 0.00 66 1011.7
20260506210047 64 92 6.1 13.9 0.00 0.00 0.00 66 1011.4
20260506204546 64 96 6.1 10.4 0.00 0.00 0.00 66 1011.4
20260506203044 65 98 6.1 11.3 0.00 0.00 0.00 66 1011.2
20260506201552 65 98 7.8 14.8 0.00 0.00 0.00 66 1011.3
20260506200047 66 117 6.1 11.3 0.00 0.00 0.00 66 1011.1